This demonstration page uses our WeatherBlox Daily Observations layout. Learn more.

Left ArrowRight Arrow

39.92423, -83.80882

Hourly Observations for June 20, 2015

Temp ( °F °C ) Dew Point ( °F °C ) Humidity (%) Winds ( mph kmh ) Pressure ( in mb ) Visibility ( mi km ) Precip ( " mm )
12:48 am 00:48 Mostly Cloudy with Mist and Fog 70 21 70 21 100 100 E 8 13 29.94 1014 6 9.65604 0 0
12:56 am 00:56 Mostly Cloudy with Mist and Fog 69 20.5 69 20.5 100 100 E 9 15 29.96 1015 6 9.65604 0 0
1:04 am 01:04 Mostly Cloudy with Mist and Fog 70 21 70 21 100 100 E 9 15 29.94 1014 6 9.65604 0 0
1:56 am 01:56 Mostly Cloudy with Mist and Fog 68 20 68 20 100 100 E 8 13 29.94 1014 6 9.65604 0 0
2:31 am 02:31 Cloudy with Mist and Fog 70 21 70 21 100 100 ESE 8 13 29.94 1014 6 9.65604 0 0
2:56 am 02:56 Cloudy with Mist and Fog 68 20 68 20 100 100 ESE 9 15 29.93 1014 5 8.0467 0 0
3:41 am 03:41 Mostly Cloudy with Mist and Fog 70 21 70 21 100 100 ESE 8 13 29.91 1013 5 8.0467 0 0
3:56 am 03:56 Cloudy with Mist and Fog 69 20.5 69 20.5 100 100 ESE 7 11 29.92 1013 4 6.43736 0 0
4:24 am 04:24 Partly Cloudy with Mist and Fog 70 21 70 21 100 100 E 8 13 29.91 1013 4 6.43736 0 0.0254
4:56 am 04:56 Mostly Clear with Mist and Fog 69 20.5 69 20.5 100 100 E 8 13 29.9 1013 5 8.0467 0 0.0254
5:56 am 05:56 Mostly Cloudy with Mist and Fog 69 20.5 69 20.5 100 100 ESE 7 11 29.88 1012 6 9.65604 0 0.0254
6:56 am 06:56 Cloudy with Mist and Fog 69 20.5 69 20.5 100 100 SE 12 19 29.89 1012 4 6.43736 0.02 0.508
7:04 am 07:04 Mostly Cloudy with Mist and Fog 70 21 70 21 100 100 ESE 10 17 29.88 1012 4 6.43736 0.01 0.254
7:13 am 07:13 Cloudy with Light Rain 70 21 70 21 100 100 SE 12 19 29.88 1012 2 3.21868 0.04 1.016
7:18 am 07:18 Mostly Cloudy with Light Rain 70 21 70 21 100 100 ESE 10 17 29.88 1012 1.75 2.816345 0.05 1.27
7:29 am 07:29 Cloudy with Light Rain 70 21 70 21 100 100 ESE 10 17 29.88 1012 2 3.21868 0.08 2.032
7:35 am 07:35 Cloudy with Light Rain 70 21 70 21 100 100 ESE 13 20 29.88 1012 1.75 2.816345 0.1 2.54
7:39 am 07:39 Cloudy with Light Rain 70 21 70 21 100 100 ESE 13 20 29.88 1012 2 3.21868 0.11 2.794
7:56 am 07:56 Cloudy with Light Rain 69 20.5 69 20.5 100 100 ESE 12 19 29.88 1012 3 4.82802 0.13 3.302
8:19 am 08:19 Cloudy with Light Rain 70 21 70 21 100 100 ESE 12 19 29.88 1012 2.5 4.02335 0.04 1.016
8:22 am 08:22 Cloudy with Light Rain 70 21 70 21 100 100 ESE 12 19 29.88 1012 2.5 4.02335 0.05 1.27
8:35 am 08:35 Cloudy with Light Rain 70 21 70 21 100 100 E 10 17 29.88 1012 2.5 4.02335 0.08 2.032
8:47 am 08:47 Cloudy with Light Rain 70 21 70 21 100 100 E 10 17 29.88 1012 3 4.82802 0.08 2.032
8:56 am 08:56 Cloudy with Light Rain 69 20.5 69 20.5 100 100 E 9 15 29.87 1012 3 4.82802 0.1 2.54
9:14 am 09:14 Cloudy with Light Rain 70 21 70 21 100 100 E 10 17 29.85 1011 3 4.82802 0.02 0.508
9:36 am 09:36 Mostly Cloudy with Mist and Fog 70 21 70 21 100 100 E 14 22 29.85 1011 4 6.43736 0.02 0.508
9:56 am 09:56 Cloudy with Light Rain 70 21.1 70 21.1 100 100 E 15 24 29.85 1011 1.75 2.816345 0.05 1.27
10:01 am 10:01 Cloudy with Heavy Rain 70 21 70 21 100 100 E 15 24 29.85 1011 1 1.60934 0.04 1.016
10:10 am 10:10 Cloudy with Light Rain 70 21 70 21 100 100 E 13 20 29.83 1010 1.5 2.41401 0.06 1.524
10:19 am 10:19 Cloudy with Light Rain 70 21 70 21 100 100 E 12 19 29.83 1010 2 3.21868 0.08 2.032
10:31 am 10:31 Cloudy with Rain 70 21 70 21 100 100 E 14 22 29.83 1010 1.25 2.011675 0.11 2.794
10:34 am 10:34 Cloudy with Rain 70 21 70 21 100 100 E 14 22 29.83 1010 1 1.60934 0.13 3.302
10:37 am 10:37 Cloudy with Light Rain 70 21 70 21 100 100 E 15 24 29.83 1010 1 1.60934 0.13 3.302
10:42 am 10:42 Cloudy with Light Rain 70 21 70 21 100 100 E 14 22 29.83 1010 1.5 2.41401 0.14 3.556
10:56 am 10:56 Cloudy with Light Rain 70 21.1 70 21.1 100 100 E 13 20 29.82 1010 1.5 2.41401 0.16 4.064
11:05 am 11:05 Cloudy with Light Rain 70 21 70 21 100 100 E 13 20 29.8 1009 2 3.21868 0.01 0.254
11:13 am 11:13 Cloudy with Light Rain 70 21 70 21 100 100 E 14 22 29.8 1009 1.25 2.011675 0.04 1.016
11:22 am 11:22 Cloudy with Light Rain 70 21 70 21 100 100 E 12 19 29.83 1010 1.75 2.816345 0.06 1.524
11:39 am 11:39 Cloudy with Rain 70 21 70 21 100 100 E 12 19 29.83 1010 1.25 2.011675 0.12 3.048
11:41 am 11:41 Cloudy with Rain 70 21 70 21 100 100 ENE 12 19 29.83 1010 1.5 2.41401 0.13 3.302
11:56 am 11:56 Cloudy with Heavy Rain 69 20.5 69 20.5 100 100 ENE 9 15 29.83 1010 1.25 2.011675 0.22 5.588
12:04 pm 12:04 Cloudy with Heavy Rain 70 21 70 21 100 100 ENE 9 15 29.8 1009 1 1.60934 0.08 2.032
12:19 pm 12:19 Cloudy with Rain 70 21 70 21 100 100 NE 12 19 29.8 1009 1.5 2.41401 0.18 4.572
12:41 pm 12:41 Cloudy with Heavy Rain 70 21 70 21 100 100 NE 9 15 29.8 1009 1.25 2.011675 0.28 7.112
12:56 pm 12:56 Cloudy with Heavy Rain 69 20.5 69 20.5 100 100 N 5 7 29.83 1010 0.75 1.207005 0.42 10.668
1:00 pm 13:00 Cloudy with Heavy Rain 70 21 70 21 100 100 NNW 5 7 29.83 1010 0.5 0.80467 0.04 1.016
1:08 pm 13:08 Cloudy with Heavy Rain 70 21 70 21 100 100 NNW 7 11 29.83 1010 0.5 0.80467 0.14 3.556
1:29 pm 13:29 Cloudy with Heavy Rain 70 21 70 21 100 100 N 13 20 29.8 1009 0.75 1.207005 0.36 9.144
1:39 pm 13:39 Mostly Cloudy with Heavy Rain 70 21 70 21 100 100 NNE 15 24 29.8 1009 0.75 1.207005 0.44 11.176
1:56 pm 13:56 Cloudy with Heavy Rain 69 20.5 69 20.5 100 100 N 13 20 29.82 1010 0.5 0.80467 0.62 15.748
2:17 pm 14:17 Cloudy with Rain 70 21 70 21 100 100 NNE 13 20 29.8 1009 1 1.60934 0.21 5.334
2:19 pm 14:19 Cloudy with Rain 70 21 70 21 100 100 NNE 14 22 29.8 1009 1.5 2.41401 0.21 5.334
2:28 pm 14:28 Cloudy with Light Rain 70 21 70 21 100 100 NNE 10 17 29.8 1009 2.5 4.02335 0.22 5.588
2:38 pm 14:38 Mostly Cloudy with Light Rain 72 22 72 22 100 100 NNE 12 19 29.8 1009 3 4.82802 0.23 5.842
2:56 pm 14:56 Cloudy 72 22.2 72 22.2 100 100 NNE 10 17 29.8 1009 8 12.87472 0.23 5.842
3:20 pm 15:20 Cloudy 73 23 72 22 94 94 NE 9 15 29.77 1008 8 12.87472 0 0.0254
3:32 pm 15:32 Mostly Cloudy 73 23 72 22 94 94 NE 7 11 29.77 1008 9 14.48406 0 0.0254
3:56 pm 15:56 Partly Cloudy 74 23.3 71 21.6 90 90 N 9 15 29.81 1009 10 16.0934 0 0.0254
4:35 pm 16:35 Mostly Cloudy 73 23 72 22 94 94 NW 14 22 29.83 1010 9 14.48406 0 0
4:42 pm 16:42 Mostly Cloudy 73 23 72 22 94 94 N 8 13 29.83 1010 9 14.48406 0 0
4:56 pm 16:56 Partly Cloudy 76 24.4 72 22.2 88 88 NE 6 9 29.81 1010 8 12.87472 0 0
5:56 pm 17:56 Mostly Sunny 76 24.4 71 21.6 84 84 NNE 5 7 29.81 1010 8 12.87472 0.01 0.254
6:56 pm 18:56 Sunny 75 23.8 72 22.2 91 91 W 3 6 29.83 1010 8 12.87472 0 0
7:56 pm 19:56 Sunny 75 23.8 73 22.7 94 94 Calm 29.85 1011 8 12.87472 0 0
8:56 pm 20:56 Partly Cloudy 74 23.3 74 23.3 100 100 S 5 7 29.86 1011 8 12.87472 0 0
9:11 pm 21:11 Mostly Cloudy 73 23 73 23 100 100 SW 6 9 29.85 1011 7 11.26538 0 0
9:19 pm 21:19 Partly Cloudy 73 23 73 23 100 100 SW 5 7 29.85 1011 8 12.87472 0 0
9:56 pm 21:56 Mostly Cloudy 73 22.7 73 22.7 100 100 SW 6 9 29.86 1011 8 12.87472 0 0
10:14 pm 22:14 Partly Cloudy 73 23 73 23 100 100 W 6 9 29.88 1012 8 12.87472 0 0
10:56 pm 22:56 Partly Cloudy 73 22.7 73 22.7 100 100 W 5 7 29.9 1013 8 12.87472 0 0

Powered by AerisWeather